Airfield :
LOGIN :

Register | Disclaimer

   EN    FR    IT 

 










Legend :    VFR   Marginal VFR   IFR   Intensive IFR   Very Intensive IFR
Visi :
Ceiling :
>= 8 km
>= 3000ft
5 to 8 km
1000 to 3000 ft
1500m to 5 km
500 to 1000 ft
800 to 1500m
200 to 500 ft
< 800m
< 200 ft
Symbols :   Thunderstorms  Fog  Heavy snow  Heavy precipitations  Wind > 20 kt
SIGMETs :     Misc.  Thunderstorms  Icing  Turbulence  Mountain Waves  Volcanic Ashes







- Airport Elevation : 121 ft
- IATA code : HUY
- Download approach charts


EGNJ - Humberside

CURRENT METAR :
  • 201350Z 20005KT 130V290 CAVOK 26/10 Q1012

EXPIRED METARs :
  • 201320Z VRB04KT CAVOK 25/10 Q1013
  • 201250Z VRB05KT 9999 FEW048 25/10 Q1013
  • 201220Z VRB04KT 9999 FEW045 26/10 Q1013
  • 201150Z 21006KT 170V260 9999 FEW045 25/10 Q1013
  • 201120Z VRB05KT 9999 FEW045 25/10 Q1013

TAF TAF EGNJ
Valid from the 20 at 12:00 until the 20 at 21:00 UTC


201101Z 2012/2021 32008KT 9999 FEW045
PROB30
TEMPO 2016/2019 8000 -RA
ATIS : +44 1652 682 020
No reported NOTAMs for that airfield.



MET'MAP, your aeronautical weather chart ! - Copyright ORBIFLY December 2007 - Disclaimer

ORBIFLY MET'MAP TEAM :

Programming & Development : Alexandra Zaïnal
Concept & Development : Baudouin d'Aumeries
Co-Development & Prog : Marc-Olivier Méhu
Technical & hardware support : Manuel Goepfert

Contact : metmap@orbifly.com




SOURCES & CREDITS :

   NOAA